SL-16 DEB, 22476

Orbit data source: Space-Track

SL-16 DEB, 22476 is space debris in LEO originally from a launch on Fri, 25 Dec 1992 UTC launched from the Tyuratam Missile And Space Complex (TTMTR). Debris objects in space refer to the collection of defunct objects orbiting the Earth. Examples of debris include non-operational satellites, rocket bodies, and fragments generated from explosions, collisions, or faulty payload assembly.

Loading next visibility...
Identifier
22476, 1992-093FR
Orbit
LEO
Country
Flag of CISCIS
Related business
Manufacturer
Unknown
Mission
Spacecraft
Bus & Motor
Unknown
Mass
Unknown
Launch date (UTC)
1992-12-25 (33 years ago)
Launch vehicle
Unknown
Launch site
Tyuratam Missile And Space Complex (TTMTR)
Object type
Payload
Rocket body
Debris
Shape & HBR
Unknown shape, 0.1 m
Radar Cross Section
Small (<0.1 m²)

Expand to show TLE details & history
Last TLE update: 22 hours ago

TLE from 22 hours ago
0 SL-16 DEB
1 22476U 92093FR  26036.87040567  .00002871  00000-0  35463-2 0  9999
2 22476  71.5501 214.7839 0467477 164.9364 196.6206 13.27687784585847
Epoch: 2026-02-05T20:53Z
TLE epoch observation values (Epoch: 2026-02-05T20:53:23.049Z)
Latitude
-0.00002°
Longitude
125.42143°
Altitude
1,496.617 km
Speed
6.954 km/s
True Right ascension
14h 19m 08s
True Declination
0° 00' 00"
Sunlit
Object was in daylight at epoch
Visualization orbit readout
Latitude
Unknown
Longitude
Unknown
Altitude
Unknown
Speed
Unknown
Apparent Right ascension
Unknown
Apparent Declination
Unknown
Sunlit
N/A
Visualization observer readout
Local Sidereal Time
20:39:00
Azimuth
Unknown
Elevation
Unknown
Doppler factor
Unknown
Orbital elements
Apogee altitude
1,505.535 km
Perigee altitude
801.366 km
Semi-major axis
7,531.588 km
Eccentricity
0.04675
Inclination
71.5501°
RAAN
214.7839°
Arg. of periapsis
164.9364°
True anomaly
195.16991°
Mean anomaly
196.6206°
Eccentric anomaly
195.88738°
Mean motion
3.32058 °/min
Orbital period
108.41 mins
BSTAR
0.0035463
Loading maneuver chart data...
Computing Atmospheric mass density...

Documentation

Showing up to 5 results
|